Location: Clarion
(42.7316°N, 93.7330°W)
Time: 09:51:04
(UTC+00:00)

USA 234 - Pass Details

Date: 22 April 2026
Orbit: 1102 x 1106 km, 123.0° (Epoch: 4 January)

Event Time Altitude Azimuth Distance (km) Brightness Sun altitude
Rises 04:02:29 0° 48° (NE) 3,926 6.2 -27.4°
Reaches altitude 10° 04:05:05 10° 42° (NE) 2,967 5.6 -27.7°
Maximum altitude 04:11:09 42° 334° (NNW) 1,524 4.4 -28.3°
Drops below altitude 10° 04:17:12 10° 266° (W) 2,962 5.8 -29.0°
Sets 04:19:48 0° 260° (W) 3,918 6.4 -29.2°
